N5RML-1 Weather Reports


time (UTC)temp
C
wind
direction
speed
KPH
gust
KPH
rain 1hr
cm
rain 24hr
cm
rain mn
cm
humidity
%
barometer
mb
20260504221520 25 175 8.0 11.3 0.00 0.00 0.00 38 1016.5
20260504220528 26 159 8.0 14.5 0.00 0.00 0.00 39 1016.5
20260504215537 26 252 6.4 9.7 0.00 0.00 0.00 40 1016.3
20260504214526 26 214 6.4 9.7 0.00 0.00 0.00 40 1016.4
20260504213535 26 170 6.4 11.3 0.00 0.00 0.00 39 1016.4
20260504212543 26 171 9.7 14.5 0.00 0.00 0.00 37 1016.5
20260504211530 26 176 6.4 8.0 0.00 0.00 0.00 36 1016.7
20260504210520 26 177 6.4 12.9 0.00 0.00 0.00 35 1016.5
20260504205529 26 159 8.0 12.9 0.00 0.00 0.00 35 1016.6
20260504204537 26 152 6.4 11.3 0.00 0.00 0.00 35 1016.9
20260504203525 26 152 9.7 17.7 0.00 0.00 0.00 36 1017.0
20260504202554 26 172 6.4 12.9 0.00 0.00 0.00 36 1017.1
20260504201523 26 144 9.7 16.1 0.00 0.00 0.00 35 1017.4
20260504200531 26 163 8.0 12.9 0.00 0.00 0.00 36 1017.5
20260504195521 26 172 9.7 12.9 0.00 0.00 0.00 36 1017.8
20260504194528 26 172 9.7 17.7 0.00 0.00 0.00 35 1017.9
20260504193536 27 183 6.4 9.7 0.00 0.00 0.00 36 1017.9
20260504192525 26 191 8.0 14.5 0.00 0.00 0.00 38 1018.1
20260504191535 27 156 9.7 12.9 0.00 0.00 0.00 37 1018.0
20260504190523 27 219 8.0 12.9 0.00 0.00 0.00 37 1018.1
20260504185531 27 209 6.4 11.3 0.00 0.00 0.00 38 1018.3
20260504184520 27 142 8.0 12.9 0.00 0.00 0.00 38 1018.4
20260504183528 27 197 9.7 14.5 0.00 0.00 0.00 37 1018.6
20260504182556 27 159 4.8 8.0 0.00 0.00 0.00 37 1018.5
20260504181546 27 172 6.4 11.3 0.00 0.00 0.00 37 1018.5
20260504180535 26 181 6.4 11.3 0.00 0.00 0.00 36 1018.6
20260504175522 27 193 8.0 12.9 0.00 0.00 0.00 35 1018.6
20260504174531 26 195 6.4 11.3 0.00 0.00 0.00 36 1018.9
20260504173541 27 157 6.4 16.1 0.00 0.00 0.00 36 1018.9
20260504172528 27 174 6.4 11.3 0.00 0.00 0.00 35 1018.8
20260504171539 26 136 6.4 12.9 0.00 0.00 0.00 36 1019.0
20260504170525 26 160 8.0 11.3 0.00 0.00 0.00 37 1018.8
20260504150528 24 203 0.0 1.6 0.00 0.00 0.00 46 1019.6
20260504140521 25 30 0.0 3.2 0.00 0.00 0.00 50 1019.7
20260504130533 17 0.0 0.0 0.00 0.00 0.00 72 1019.8
20260504110535 12 0.0 0.0 0.00 0.00 0.00 82 1019.0
20260504100548 13 0.0 0.0 0.00 0.00 0.00 79 1019.2
20260504081523 13 0.0 0.0 0.00 0.00 0.00 79 1019.0
20260504080534 14 0.0 0.0 0.00 0.00 0.00 76 1019.1
20260504050527 17 113 0.0 1.6 0.00 0.00 0.00 69 1020.7
20260504045535 17 0.0 3.2 0.00 0.00 0.00 69 1020.7
20260504044524 17 158 0.0 3.2 0.00 0.00 0.00 68 1020.8
20260504043532 17 167 0.0 3.2 0.00 0.00 0.00 67 1021.0
20260504042521 17 168 1.6 3.2 0.00 0.00 0.00 66 1021.0
20260504041530 17 209 1.6 4.8 0.00 0.00 0.00 63 1021.0
20260504040618 18 135 0.0 3.2 0.00 0.00 0.00 61 1020.9
20260504035528 18 136 1.6 4.8 0.00 0.00 0.00 59 1020.7
20260504034557 18 144 3.2 4.8 0.00 0.00 0.00 58 1020.8
20260504033524 18 149 1.6 3.2 0.00 0.00 0.00 57 1020.8
20260504032533 18 0.0 0.0 0.00 0.00 0.00 56 1020.9
20260504031521 19 143 1.6 4.8 0.00 0.00 0.00 55 1020.9
20260504030550 19 159 3.2 6.4 0.00 0.00 0.00 55 1020.9
20260504025520 18 0.0 0.0 0.00 0.00 0.00 55 1020.8
20260504024527 19 161 1.6 4.8 0.00 0.00 0.00 53 1020.6
20260504023535 18 0.0 0.0 0.00 0.00 0.00 53 1020.6
20260504022524 18 142 1.6 4.8 0.00 0.00 0.00 53 1020.5
20260504021533 18 0.0 0.0 0.00 0.00 0.00 55 1020.5
20260504020525 19 0.0 0.0 0.00 0.00 0.00 55 1020.3
20260504015530 18 158 1.6 4.8 0.00 0.00 0.00 60 1020.2
20260504014519 18 0.0 0.0 0.00 0.00 0.00 59 1020.0
20260504013527 19 0.0 0.0 0.00 0.00 0.00 59 1020.0
20260504012537 19 0.0 1.6 0.00 0.00 0.00 59 1020.0
20260504011527 20 0.0 0.0 0.00 0.00 0.00 54 1019.8
20260504010533 20 0.0 0.0 0.00 0.00 0.00 51 1019.8
20260504005605 21 0.0 0.0 0.00 0.00 0.00 46 1019.7
20260504004531 21 0.0 0.0 0.00 0.00 0.00 44 1019.7
20260504003541 22 0.0 0.0 0.00 0.00 0.00 42 1019.7
20260504002528 22 57 1.6 4.8 0.00 0.00 0.00 41 1019.6
20260504001616 23 339 0.0 3.2 0.00 0.00 0.00 40 1019.5
20260504000525 24 51 1.6 4.8 0.00 0.00 0.00 39 1019.5
20260503235553 25 178 1.6 4.8 0.00 0.00 0.00 37 1019.6
20260503234523 26 13 1.6 4.8 0.00 0.00 0.00 35 1019.6
20260503233532 28 301 1.6 6.4 0.00 0.00 0.00 32 1019.7
20260503232521 28 292 0.0 3.2 0.00 0.00 0.00 32 1019.8
20260503231550 28 312 1.6 4.8 0.00 0.00 0.00 31 1019.8
20260503230536 28 325 3.2 6.4 0.00 0.00 0.00 32 1019.9
20260503225526 26 334 3.2 8.0 0.00 0.00 0.00 35 1019.9
20260503224534 26 331 4.8 6.4 0.00 0.00 0.00 34 1020.0
20260503223523 26 357 4.8 8.0 0.00 0.00 0.00 35 1020.0
20260503222532 26 291 3.2 4.8 0.00 0.00 0.00 35 1020.0